sat.trackr.live / text

‹ back to catalog

STARLINK-30383

NORAD 57773 · 2023-134C

PAYLOAD ACTIVE UNKNOWN

§ Identity

Operator
Country
US
Launch date
2023-09-04
Launch site
AFETR
Launch vehicle
Mass (kg)
RCS (m²)

Purposes: comms

External: N2YO · Heavens-Above · Gunter

§ Orbital elements

Epoch: 2026-05-25T05:04:21.463392Z

Period
94.27 min
Inclination
43.0001°
Eccentricity
0.0000669
Mean motion
15.27549289 rev/d
Perigee alt
482.7 km
Apogee alt
483.6 km
Semi-major
6,861.3 km
B*
4.2782e-4
RAAN
125.4178°
Arg perigee
328.2243°
Mean anomaly
31.8568°
Rev number
15,117

§ Raw data

STARLINK-303831 57773U 23134C   26145.21135953  .00011518  00000+0  42782-3 0  99902 57773  43.0001 125.4178 0000669 328.2243  31.8568 15.27549289151170

JSON: /api/v1/satellites/57773 · /tle

For live sub-satellite position, see the globe view (requires WebGL).

§ Visibility from observer

Set your observer location to see the next 7 days of passes ≥ 10°. The values pass through the URL so the page stays shareable.

No JS? Fill the form by hand. The geolocation button needs JavaScript.